Date String (YYYY-MM-DD hh:mm:ss) UTC,Instrument flags,Ambient pressure (hPa),Sample flow (lpm),Bypass flow (lpm),Sample temperature (°C),Ambient temperature (°C),ASC tube jacket temperature (°C),LED temperature (°C),Box temperature (°C),Sample RH (%),Span deviation,Mass concentration (μg/m³),Mass concentration (μg/m³),Mass concentration (μg/m³)
DateTimeUTC,F1_M11,P_M11,Q1_M11,Q2_M11,T1_M11,T2_M11,T3_M11,T4_M11,T5_M11,U1_M11,ZSPAN_M11,X0_M11,X2_M11,X1_M11
2022-11-22 20:00:00,,0827.5,5.00,0.00,25.9,24.9,00.0,34.7,27.8,07.0,0000.7,0013.69,0006.23,0005.62
2022-11-22 20:01:00,,0827.5,4.99,0.00,25.9,24.9,00.0,34.7,27.9,07.0,0000.3,0013.16,0006.02,0005.43
2022-11-22 20:02:00,,0827.5,4.99,0.00,26.0,24.9,00.0,34.7,27.9,07.1,0000.0,0012.58,0005.82,0005.25
2022-11-22 20:03:00,,0827.5,5.01,0.00,26.0,24.9,00.0,34.7,27.9,06.8,0000.0,0012.80,0005.57,0005.02
2022-11-22 20:04:00,,0827.5,5.01,0.00,26.0,24.9,00.0,34.8,27.9,06.3,0000.0,0012.24,0005.33,0004.77
2022-11-22 20:05:00,,0827.5,5.00,0.00,26.0,24.9,00.0,34.8,27.9,06.4,0000.0,0011.96,0005.12,0004.57
2022-11-22 20:06:00,,0827.4,4.99,0.00,26.0,24.9,00.0,34.8,27.9,06.8,0000.0,0011.46,0004.93,0004.41
2022-11-22 20:07:00,,0827.4,5.00,0.00,26.0,24.9,00.0,34.8,27.9,06.6,0000.0,0010.85,0004.77,0004.28
2022-11-22 20:08:00,,0827.4,4.99,0.00,26.0,24.9,00.0,34.8,28.0,06.5,0000.0,0011.59,0004.60,0004.13
2022-11-22 20:09:00,,0827.4,5.00,0.00,26.0,24.9,00.0,34.8,27.9,06.4,0000.0,0011.39,0004.40,0003.97
2022-11-22 20:10:00,,0827.4,5.00,0.00,26.0,24.9,00.0,34.8,27.9,06.4,0000.0,0011.25,0004.20,0003.79
2022-11-22 20:11:00,,0827.4,5.02,0.00,26.0,24.9,00.0,34.8,27.9,06.4,0000.0,0011.17,0004.04,0003.66
2022-11-22 20:12:00,,0827.4,5.00,0.00,26.0,24.9,00.0,34.8,27.9,06.7,0000.0,0011.20,0003.91,0003.55
2022-11-22 20:13:00,,0827.4,4.99,0.00,26.0,24.9,00.0,34.8,28.0,06.3,0000.0,0011.20,0003.78,0003.42
2022-11-22 20:14:00,,0827.4,5.00,0.00,26.0,24.9,00.0,34.8,27.9,06.4,0000.0,0010.49,0003.70,0003.32
2022-11-22 20:15:00,,0827.4,4.99,0.00,26.0,24.9,00.0,34.9,28.0,06.6,0000.0,0010.22,0003.64,0003.27
2022-11-22 20:16:00,,0827.4,5.01,0.00,26.0,24.9,00.0,34.9,27.9,06.7,0000.0,0010.18,0003.62,0003.23
2022-11-22 20:17:00,,0827.4,5.01,0.00,26.0,25.0,00.0,34.9,27.9,07.2,0000.0,0010.12,0003.62,0003.20
2022-11-22 20:18:00,,0827.4,5.01,0.00,26.1,25.0,00.0,34.9,28.0,07.1,0000.0,0010.05,0003.60,0003.16
2022-11-22 20:19:00,,0827.4,5.00,0.00,26.1,25.0,00.0,34.9,28.0,07.0,0000.0,0008.88,0003.56,0003.12
2022-11-22 20:20:00,,0827.4,4.99,0.00,26.1,25.0,00.0,34.9,28.0,06.6,0000.0,0008.69,0003.54,0003.06
2022-11-22 20:21:00,,0827.4,4.99,0.00,26.1,25.0,00.0,34.9,28.0,06.5,0000.0,0009.11,0003.48,0002.98
2022-11-22 20:22:00,,0827.4,5.02,0.00,26.1,25.0,00.0,34.9,28.0,06.7,0000.0,0008.47,0003.44,0002.91
2022-11-22 20:23:00,,0827.4,5.00,0.00,26.1,25.0,00.0,34.9,28.0,06.6,0000.0,0008.35,0003.43,0002.86
2022-11-22 20:24:00,,0827.4,5.00,0.00,26.1,24.9,00.0,34.9,28.0,06.7,0000.0,0008.37,0003.44,0002.83
2022-11-22 20:25:00,,0827.4,5.00,0.00,26.1,24.9,00.0,34.9,28.0,06.7,0000.0,0008.00,0003.42,0002.81
2022-11-22 20:26:00,,0827.4,5.00,0.00,26.1,24.9,00.0,34.9,28.0,06.5,0000.0,0007.92,0003.38,0002.78
2022-11-22 20:27:00,,0827.4,5.00,0.00,26.1,24.9,00.0,34.9,28.0,06.6,0000.0,0008.36,0003.35,0002.74
2022-11-22 20:28:00,,0827.4,5.01,0.00,26.1,24.9,00.0,34.9,28.0,06.7,0000.0,0009.00,0003.32,0002.70
2022-11-22 20:29:00,,0827.4,5.01,0.00,26.1,24.9,00.0,34.9,28.0,06.4,0000.0,0009.50,0003.31,0002.69
2022-11-22 20:30:00,,0827.4,5.01,0.00,26.1,24.9,00.0,34.9,28.0,06.5,0000.0,0009.89,0003.32,0002.69
2022-11-22 20:31:00,,0827.3,5.00,0.00,26.1,24.9,00.0,34.9,28.0,06.5,0000.0,0009.94,0003.32,0002.66
2022-11-22 20:32:00,,0827.3,5.00,0.00,26.1,24.9,00.0,34.9,28.0,06.7,0000.0,0009.42,0003.33,0002.65
2022-11-22 20:33:00,,0827.3,5.00,0.00,26.1,24.9,00.0,35.0,28.0,06.8,0000.0,0009.53,0003.38,0002.66
2022-11-22 20:34:00,,0827.4,5.00,0.00,26.1,24.9,00.0,34.9,28.0,06.7,0000.0,0009.45,0003.45,0002.68
2022-11-22 20:35:00,,0827.3,5.00,0.00,26.1,24.8,00.0,34.9,27.9,06.5,0000.0,0009.29,0003.52,0002.76
2022-11-22 20:36:00,,0827.2,5.00,0.00,26.1,24.8,00.0,34.9,27.9,06.5,0000.0,0009.56,0003.59,0002.85
2022-11-22 20:37:00,,0827.2,4.99,0.00,26.1,24.7,00.0,34.9,27.9,06.4,0000.0,0010.16,0003.68,0002.96
2022-11-22 20:38:00,,0827.4,5.00,0.00,26.1,24.7,00.0,34.9,27.9,06.3,0000.0,0010.31,0003.79,0003.11
2022-11-22 20:39:00,,0827.5,5.00,0.00,26.1,24.7,00.0,34.9,27.9,06.1,0000.0,0009.88,0003.90,0003.20
2022-11-22 20:40:00,,0827.2,5.00,0.00,26.0,24.6,00.0,34.9,27.9,06.2,0000.0,0009.69,0004.02,0003.28
2022-11-22 20:41:00,,0827.2,5.00,0.00,26.0,24.6,00.0,34.9,27.8,06.2,0000.0,0009.48,0004.11,0003.36
2022-11-22 20:42:00,,0827.2,5.00,0.00,26.0,24.6,00.0,34.9,27.8,06.3,0000.0,0009.76,0004.19,0003.42
2022-11-22 20:43:00,,0827.2,5.00,0.00,26.0,24.6,00.0,34.9,27.8,06.4,0000.0,0010.00,0004.25,0003.48
2022-11-22 20:44:00,,0827.2,5.00,0.00,26.0,24.6,00.0,34.9,27.8,06.5,0000.0,0010.67,0004.31,0003.55
2022-11-22 20:45:00,,0827.2,4.99,0.00,26.0,24.5,00.0,34.9,27.8,06.2,0000.0,0011.13,0004.31,0003.60
2022-11-22 20:46:00,,0827.2,5.00,0.00,26.0,24.6,00.0,34.9,27.8,06.5,0000.0,0011.49,0004.31,0003.63
2022-11-22 20:47:00,,0827.2,4.99,0.00,26.0,24.6,00.0,34.9,27.9,06.8,0000.0,0011.61,0004.31,0003.65
2022-11-22 20:48:00,,0827.2,4.99,0.00,26.0,24.6,00.0,34.9,27.8,06.3,0000.0,0011.22,0004.31,0003.65
2022-11-22 20:49:00,,0827.2,5.00,0.00,26.0,24.6,00.0,34.9,27.8,06.2,0000.0,0012.24,0004.29,0003.64
2022-11-22 20:50:00,,0827.2,5.00,0.00,26.0,24.6,00.0,34.9,27.8,06.2,0000.0,0013.22,0004.29,0003.63
2022-11-22 20:51:00,,0827.2,4.99,0.00,26.0,24.6,00.0,34.9,27.8,06.4,0000.0,0013.68,0004.25,0003.61
2022-11-22 20:52:00,,0827.1,5.00,0.00,26.0,24.6,00.0,34.9,27.8,06.4,0000.0,0014.54,0004.22,0003.60
2022-11-22 20:53:00,,0827.2,5.00,0.00,26.0,24.6,00.0,34.9,27.8,06.4,0000.0,0014.67,0004.22,0003.60
2022-11-22 20:54:00,,0827.2,5.01,0.00,26.0,24.6,00.0,34.9,27.8,06.7,0000.0,0014.60,0004.24,0003.62
2022-11-22 20:55:00,,0827.2,5.01,0.00,26.0,24.7,00.0,34.9,27.8,06.8,0000.0,0013.90,0004.24,0003.62
2022-11-22 20:56:00,,0827.1,5.01,0.00,26.0,24.8,00.0,34.9,27.9,06.6,0000.0,0013.62,0004.27,0003.63
2022-11-22 20:57:00,,0827.1,4.99,0.00,26.0,24.8,00.0,34.9,27.8,06.6,0000.0,0013.82,0004.29,0003.65
2022-11-22 20:58:00,,0827.1,5.00,0.00,26.0,24.7,00.0,34.9,27.8,06.7,0000.0,0013.77,0004.31,0003.66
2022-11-22 20:59:00,,0827.1,5.00,0.00,26.0,24.7,00.0,34.9,27.8,06.9,0000.0,0014.52,0004.33,0003.67
